Regional Weather Roundup
Issued by NWS

Home | Current Version | Previous Version | Graphics & Text | Print | Product List | Glossary On
Versions: 1 2 3 4 5 6 7 8 9 10 11 12 13 14 15 16 17 18 19 20 21 22 23 24 25 26 27 28 29 30 31 32 33 34 35 36 37 38 39 40 41 42 43 44 45 46 47 48 49 50
000
ASUS43 KMPX 051210
RWRMN
WEATHER ROUNDUP FOR MINNESOTA
NATIONAL WEATHER SERVICE TWIN CITIES/CHANHASSEN MN
700 AM CDT TUE MAY 05 2015


NOTE: "FAIR" INDICATES FEW OR NO CLOUDS BELOW 12,000 FEET WITH NO
SIGNIFICANT WEATHER AND/OR OBSTRUCTIONS TO VISIBILITY. N/A MEANS
CURRENT SKY AND/OR WEATHER CONDITIONS ARE NOT AVAILABLE.

MNZ060>063-068>070-051300-
   Twin Cities Metro

CITY           SKY/WX    TMP DP  RH WIND       PRES   REMARKS
TWIN CITIES    PTCLDY    53  35  50 NE8       30.19R
6HR MIN TEMP:  51; 6HR MAX TEMP:  57;

ST PAUL        CLEAR     51  37  58 E6        30.21R
CRYSTAL        CLEAR     52  36  54 E7        30.19R
BLAINE         CLEAR     52  37  58 E8        30.20S
LAKEVILLE      PTCLDY    46  36  66 E5        30.18S
EDEN PRAIRIE   CLEAR     51  33  50 NE7       30.17S
6HR MIN TEMP:  49; 6HR MAX TEMP:  55;

SOUTH ST PAUL  CLEAR     51  35  53 NE8       30.19S
LAKE ELMO      FAIR      50  37  62 E7        30.22R
$$
MNZ001>005-007-008-013>017-022>024-027-028-051300-
   Northwest Minnesota

CITY           SKY/WX    TMP DP  RH WIND       PRES   REMARKS
BEMIDJI        CLEAR     33  29  83 CALM      30.23R
HALLOCK        CLEAR     41  25  52 S9        30.16R
ROSEAU         CLEAR     45  30  57 S6        30.19R
WARROAD        CLEAR     46  30  53 S3        30.19S
THIEF RVR FALL CLEAR     45  27  49 SE7       30.20R
CROOKSTON      CLEAR     43  30  61 S9        30.19R
FOSSTON        CLEAR     48  23  37 SE7       30.21R
DETROIT LAKES  CLEAR     48  28  46 SE5       30.21S
MOORHEAD       CLEAR     46  28  49 SE6       30.19S
PARK RAPIDS    CLEAR     36  31  82 CALM      30.22R
MAHNOMEN       FAIR      48  25  40 SE9       30.19S
$$
MNZ006-009>011-018-025>026-051300-
   North Central Minnesota

CITY           SKY/WX    TMP DP  RH WIND       PRES   REMARKS
BAUDETTE       CLEAR     38  31  76 SE6       30.21S
FLAG ISLAND    CLEAR     48  39  71 S8        30.18R
INTL FALLS     SUNNY     35  29  78 SE3       30.23S
6HR MIN TEMP:  28; 6HR MAX TEMP:  35;

WASKISH        FAIR      43  30  61 CALM      30.22R
BIG FORK       SUNNY     32  27  80 CALM      30.24S
LONGVILLE      CLEAR     30  30 100 CALM      30.23F
GRAND RAPIDS   SUNNY     34  25  69 CALM      30.25R
CRANE LAKE     FAIR      28  27  93 CALM      30.27S
ORR            SUNNY     39  25  56 CALM      30.22F
COOK           SUNNY     30  27  86 CALM      30.26R FOG
WALKER         FAIR      38  32  78 CALM      30.23S
$$
MNZ012-019>021-037-051300-
   Northeast Minnesota

CITY           SKY/WX    TMP DP  RH WIND       PRES   REMARKS
DULUTH         SUNNY     45  27  49 E5        30.26R
6HR MIN TEMP:  34; 6HR MAX TEMP:  45;

ELY            SUNNY     30  28  93 CALM      30.27R
HIBBING        SUNNY     32  26  78 CALM      30.26R
EVELETH        SUNNY     32  30  93 NE3       30.27S
DULUTH HARBOR    N/A     43  34  70 NE3       30.28S
TWO HARBORS    SUNNY     37  30  75 CALM      30.26R
SILVER BAY     SUNNY     36  30  80 CALM      30.27R
GRAND MARAIS     N/A     42  33  70 CALM      30.28R
G MARAIS ARPRT SUNNY     37  27  65 N3        30.29S
$$
MNZ029>031-032-039>041-046>048-054>057-064-051300-
   West Central Minnesota

CITY           SKY/WX    TMP DP  RH WIND       PRES   REMARKS
FERGUS FALLS   CLEAR     52  27  37 E7        30.20S
WHEATON        FAIR      39  28  65 CALM      30.20R
MORRIS         CLEAR     45  28  53 E9        30.17S
ALEXANDRIA     CLEAR     48  27  44 E7        30.21R
ELBOW LAKE     FAIR      50  30  46 E9        30.18F
WADENA         CLEAR     37  28  70 CALM      30.21S
GLENWOOD       CLEAR     45  25  45 NE7       30.20R
APPLETON       CLEAR     43  32  65 E6        30.16S
BENSON         CLEAR     48  21  34 E6        30.17S
ORTONVILLE     CLEAR     45  28  53 CALM      30.17S
MADISON        PTCLDY    39  27  60 CALM      30.16F
WILLMAR        FAIR      52  28  40 E8        30.19S
$$
MNZ033>034-036-042>043-049>051-058-059-051300-
   Central Minnesota

CITY           SKY/WX    TMP DP  RH WIND       PRES   REMARKS
ST CLOUD       CLEAR     49  25  39 E6        30.21R
6HR MIN TEMP:  47; 6HR MAX TEMP:  52;

SAUK CENTRE    FAIR      46  27  46 E6        30.21R
PAYNESVILLE    CLEAR     39  31  72 CALM      30.20S
AITKIN         CLEAR     32  27  80 CALM      30.22F
PINE RIVER     MOCLDY    30  28  93 CALM      30.26S
BRAINERD       CLEAR     36  34  92 CALM      30.23S
STAPLES        CLEAR     36  30  80 CALM      30.22R
LONG PRAIRIE   FAIR      37  30  75 CALM      30.22R
LITTLE FALLS   CLEAR     37  28  70 CALM      30.21S
LITCHFIELD     CLEAR     50  30  46 E6        30.19S
BUFFALO        CLEAR     48  29  48 NE8       30.20S
MAPLE LAKE     CLEAR     49  32  52 NE6       30.21R
$$
MNZ037-044-045-052-053-051300-
   East Central Minnesota

CITY           SKY/WX    TMP DP  RH WIND       PRES   REMARKS
PRINCETON      CLEAR     46  28  49 NE3       30.22R
MORA           CLEAR     43  28  56 E3        30.25R
CAMBRIDGE      CLEAR     45  32  61 CALM      30.21R
RUSH CITY      SUNNY     45  30  57 NE5       30.24R
MOOSE LAKE     SUNNY     39  28  65 NE5       30.24S
HINCKLEY       FAIR      39  30  70 CALM      30.25R
CLOQUET        SUNNY     36  28  75 CALM      30.26R
MCGREGOR       SUNNY     34  32  93 CALM      30.25S
$$
MNZ071>073-080-081-089-090-097-098-051300-
   Southwest Minnesota

CITY           SKY/WX    TMP DP  RH WIND       PRES   REMARKS
MONTEVIDEO     PTCLDY    45  28  53 E6        30.17S
GRANITE FALLS  PTCLDY    46  28  49 NE6       30.18S
CANBY          PTCLDY    37  30  77 CALM      30.17S
MARSHALL       PTCLDY    39  21  48 NW3       30.15F
REDWOOD FALLS  PTCLDY    50  27  40 NE6       30.15F
OLIVIA         CLEAR     46  27  46 NE6       30.15F
PIPESTONE      MOCLDY    52  28  40 E9        30.13S
WINDOM         PTCLDY    54  30  40 NE9       30.14R
WORTHINGTON    CLOUDY    54  30  40 NE10      30.13S
JACKSON        MOCLDY    54  32  43 NE9       30.13S
TRACY          PTCLDY    46  29  51 CALM      30.15S
SLAYTON        MOCLDY    49  29  45 CALM      30.14S
$$
MNZ065>067-074>077-082>085-091>093-051300-
   South Central Minnesota

CITY           SKY/WX    TMP DP  RH WIND       PRES   REMARKS
MANKATO        PTCLDY    52  36  54 E8        30.15S
NEW ULM        PTCLDY    52  28  40 E6        30.15S
ST JAMES       PTCLDY    52  34  50 CALM      30.15R
FAIRMONT       CLOUDY    54  34  47 NE6       30.13R
GLENCOE        CLEAR     48  33  56 CALM      30.17S
FARIBAULT      FAIR      48  37  66 NE5       30.17R
OWATONNA       PTCLDY    52  37  58 E9        30.16R
WASECA         PTCLDY    52  36  54 NE12      30.17R
ALBERT LEA     RAIN      52  46  82 E5        30.14S
$$
MNZ078>079-086>088-094>096-051300-
   Southeast Minnesota

CITY           SKY/WX    TMP DP  RH WIND       PRES   REMARKS
ROCHESTER      CLOUDY    54  43  66 E14       30.18R
6HR MIN TEMP:  52; 6HR MAX TEMP:  56;

RED WING       MOSUNNY   52  39  62 E8        30.19R
STANTON        PTCLDY    48  36  63 NE7       30.17R
DODGE CENTER   MOCLDY    54  39  58 E10       30.17R
WINONA         PTSUNNY   54  41  62 E6        30.21R
AUSTIN         LGT RAIN  52  48  87 E12       30.15S
PRESTON        LGT RAIN  49  48  94 E13       30.19R
$$
ABBREVIATIONS USED IN REMARKS
   TC - TEMPERATURES IN CELSIUS
  WCI - WIND CHILL INDEX
   HX - HEAT INDEX
  VSB - VISIBILITY
$$


USA.gov is the U.S. government's official web portal to all federal, state and local government web resources and services.